Regional Weather Roundup
Issued by NWS

Home | Current Version | Previous Version | Text Only | Print | Product List | Glossary Off
Versions: 1 2 3 4 5 6 7 8 9 10 11 12 13 14 15 16 17 18 19 20 21 22 23 24 25 26 27 28 29 30 31 32 33 34 35 36 37 38 39 40 41 42 43 44 45 46 47 48 49 50

000
ASUS43 KBIS 020910
RWRND

NORTH DAKOTA REGIONAL WEATHER ROUNDUP
NATIONAL WEATHER SERVICE BISMARCK ND
400 AM CDT THU OCT 02 2014

NOTE: "FAIR" INDICATES FEW OR NO CLOUDS BELOW 12,000 FEET WITH NO
SIGNIFICANT WEATHER AND/OR OBSTRUCTIONS TO VISIBILITY.


NDZ001>003-009>011-017-021000-
NORTHWEST NORTH DAKOTA

CITY           SKY/WX    TMP DP  RH WIND       PRES   REMARKS
WILLISTON      MOCLDY    43  40  89 SW6       29.85S
MINOT          CLEAR     46  42  86 SW9       29.81F
MINOT AFB      CLEAR     44  44  99 W8        29.81S
$$

NDZ018>021-031>035-040>046-021000-
SOUTHWEST NORTH DAKOTA

CITY           SKY/WX    TMP DP  RH WIND       PRES   REMARKS
BISMARCK       MOCLDY    45  43  93 W3        29.88F
DICKINSON      CLEAR     41  37  86 W7        29.89S
GARRISON         N/A     45  43  93 W8        29.85R
HETTINGER ARPT CLEAR     38  34  85 CALM      29.94S
$$

NDZ004>008-012>016-024-026-027-054-021000-
NORTHEAST NORTH DAKOTA

CITY           SKY/WX    TMP DP  RH WIND       PRES   REMARKS
GRAND FORKS    CLEAR     48  45  89 SW6       29.79S
GRND FRKS AFB  CLEAR     46  46  99 SW6       29.81R
DEVILS LAKE    MOCLDY    50  43  76 W8        29.79F
$$

NDZ022-023-025-028>030-036>039-047>053-021000-
SOUTHEAST NORTH DAKOTA

CITY           SKY/WX    TMP DP  RH WIND       PRES   REMARKS
FARGO          PTCLDY    49  46  90 W9        29.82S
JAMESTOWN      MOCLDY    48  45  89 W8        29.83F
$$




USA.gov is the U.S. government's official web portal to all federal, state and local government web resources and services.